| time (UTC) | temp F | wind direction | speed knots | gust knots | rain 1hr in | rain 24hr in | rain mn in | humidity % | barometer mb |
| 20260505221531 | 77 | 302 | 4.3 | 9.6 | 0.00 | 0.00 | 0.00 | 46 | 1014.4 |
| 20260505220033 | 77 | 292 | 4.3 | 9.6 | 0.00 | 0.00 | 0.00 | 46 | 1014.5 |
| 20260505210031 | 76 | 304 | 3.5 | 9.6 | 0.00 | 0.00 | 0.00 | 47 | 1015.0 |
| 20260505204531 | 75 | 305 | 4.3 | 8.7 | 0.00 | 0.00 | 0.00 | 47 | 1015.1 |
| 20260505203029 | 75 | 297 | 3.5 | 7.8 | 0.00 | 0.00 | 0.00 | 47 | 1015.1 |
| 20260505201530 | 74 | 306 | 4.3 | 8.7 | 0.00 | 0.00 | 0.00 | 48 | 1015.2 |
| 20260505200108 | 74 | 301 | 4.3 | 8.7 | 0.00 | 0.00 | 0.00 | 49 | 1015.3 |
| 20260505194605 | 73 | 312 | 4.3 | 9.6 | 0.00 | 0.00 | 0.00 | 50 | 1015.4 |
| 20260505190035 | 69 | 284 | 3.5 | 7.8 | 0.00 | 0.00 | 0.00 | 56 | 1015.5 |
| 20260505184646 | 69 | 281 | 4.3 | 9.6 | 0.00 | 0.00 | 0.00 | 57 | 1015.6 |
| 20260505183032 | 68 | 288 | 4.3 | 10.4 | 0.00 | 0.00 | 0.00 | 58 | 1015.6 |
| 20260505181531 | 67 | 300 | 4.3 | 8.7 | 0.00 | 0.00 | 0.00 | 59 | 1015.6 |
| 20260505174530 | 67 | 307 | 3.5 | 7.8 | 0.00 | 0.00 | 0.00 | 57 | 1015.7 |
| 20260505173029 | 69 | 17 | 2.6 | 6.1 | 0.00 | 0.00 | 0.00 | 56 | 1015.6 |
| 20260505171528 | 69 | 33 | 0.9 | 4.3 | 0.00 | 0.00 | 0.00 | 56 | 1015.6 |
| 20260505163030 | 68 | 299 | 1.7 | 4.3 | 0.00 | 0.00 | 0.00 | 58 | 1015.7 |
| 20260505161530 | 67 | 356 | 1.7 | 6.1 | 0.00 | 0.00 | 0.00 | 58 | 1015.7 |
| 20260505153108 | 65 | 29 | 0.0 | 3.5 | 0.00 | 0.00 | 0.00 | 64 | 1015.3 |
| 20260505151532 | 64 | 108 | 0.0 | 3.5 | 0.00 | 0.00 | 0.00 | 70 | 1015.3 |
| 20260505124604 | 52 | 92 | 2.6 | 5.2 | 0.00 | 0.00 | 0.00 | 85 | 1013.7 |
| 20260505121608 | 52 | 104 | 2.6 | 5.2 | 0.00 | 0.00 | 0.00 | 83 | 1013.5 |
| 20260505120031 | 53 | 95 | 4.3 | 6.1 | 0.00 | 0.00 | 0.00 | 83 | 1013.5 |
| 20260505114529 | 52 | 90 | 3.5 | 5.2 | 0.00 | 0.00 | 0.00 | 83 | 1013.4 |
| 20260505111604 | 53 | 55 | 1.7 | 2.6 | 0.00 | 0.00 | 0.00 | 80 | 1013.2 |
| 20260505101530 | 55 | 43 | 0.9 | 2.6 | 0.00 | 0.00 | 0.00 | 78 | 1012.8 |
| 20260505093034 | 56 | 91 | 0.9 | 3.5 | 0.00 | 0.00 | 0.00 | 74 | 1012.7 |
| 20260505091529 | 57 | 342 | 0.0 | 1.7 | 0.00 | 0.00 | 0.00 | 72 | 1012.5 |
| 20260505090030 | 58 | 268 | 0.9 | 2.6 | 0.00 | 0.00 | 0.00 | 71 | 1012.4 |
| 20260505084531 | 59 | 307 | 1.7 | 3.5 | 0.00 | 0.00 | 0.00 | 70 | 1012.5 |
| 20260505083029 | 59 | 279 | 1.7 | 4.3 | 0.00 | 0.00 | 0.00 | 70 | 1012.5 |
| 20260505081531 | 59 | 252 | 1.7 | 4.3 | 0.00 | 0.00 | 0.00 | 70 | 1012.5 |
| 20260505080031 | 58 | 288 | 2.6 | 7.0 | 0.00 | 0.00 | 0.00 | 72 | 1012.5 |
| 20260505074530 | 58 | 280 | 0.0 | 3.5 | 0.00 | 0.00 | 0.00 | 71 | 1012.4 |
| 20260505073031 | 58 | 302 | 0.0 | 1.7 | 0.00 | 0.00 | 0.00 | 70 | 1012.3 |
| 20260505071532 | 59 | 75 | 0.9 | 2.6 | 0.00 | 0.00 | 0.00 | 67 | 1012.3 |
| 20260505070107 | 60 | 360 | 0.9 | 2.6 | 0.00 | 0.00 | 0.00 | 65 | 1012.1 |
| 20260505064534 | 61 | 81 | 0.9 | 4.3 | 0.00 | 0.00 | 0.00 | 63 | 1012.1 |
| 20260505063029 | 62 | 251 | 1.7 | 4.3 | 0.00 | 0.00 | 0.00 | 60 | 1012.1 |
| 20260505060029 | 64 | 222 | 2.6 | 7.8 | 0.00 | 0.00 | 0.00 | 56 | 1012.0 |
| 20260505054531 | 65 | 265 | 2.6 | 6.1 | 0.00 | 0.00 | 0.00 | 55 | 1011.8 |
| 20260505053106 | 65 | 239 | 3.5 | 7.0 | 0.00 | 0.00 | 0.00 | 54 | 1011.8 |
| 20260505051645 | 65 | 243 | 3.5 | 8.7 | 0.00 | 0.00 | 0.00 | 53 | 1011.7 |
| 20260505041535 | 68 | 232 | 4.3 | 11.3 | 0.00 | 0.00 | 0.00 | 49 | 1011.2 |
| 20260505040042 | 68 | 238 | 5.2 | 9.6 | 0.00 | 0.00 | 0.00 | 49 | 1011.0 |
| 20260505034528 | 68 | 239 | 5.2 | 10.4 | 0.00 | 0.00 | 0.00 | 49 | 1010.7 |
| 20260505033107 | 69 | 242 | 3.5 | 9.6 | 0.00 | 0.00 | 0.00 | 47 | 1010.6 |
| 20260505031530 | 70 | 246 | 3.5 | 9.6 | 0.00 | 0.00 | 0.00 | 46 | 1010.4 |
| 20260505030038 | 71 | 247 | 5.2 | 14.8 | 0.00 | 0.00 | 0.00 | 44 | 1010.2 |
| 20260505024531 | 72 | 242 | 4.3 | 10.4 | 0.00 | 0.00 | 0.00 | 43 | 1010.1 |
| 20260505021532 | 75 | 241 | 7.0 | 13.9 | 0.00 | 0.00 | 0.00 | 39 | 1010.0 |
| 20260505020033 | 76 | 243 | 7.8 | 15.6 | 0.00 | 0.00 | 0.00 | 37 | 1009.9 |
| 20260505014645 | 77 | 245 | 7.8 | 15.6 | 0.00 | 0.00 | 0.00 | 36 | 1009.9 |
| 20260505013109 | 78 | 235 | 10.4 | 20.0 | 0.00 | 0.00 | 0.00 | 35 | 1010.0 |
| 20260505011533 | 79 | 245 | 7.8 | 15.6 | 0.00 | 0.00 | 0.00 | 36 | 1009.9 |
| 20260505010028 | 80 | 241 | 7.8 | 14.8 | 0.00 | 0.00 | 0.00 | 38 | 1009.9 |
| 20260505004530 | 80 | 280 | 5.2 | 13.0 | 0.00 | 0.00 | 0.00 | 41 | 1010.0 |
| 20260505003031 | 80 | 308 | 6.1 | 13.9 | 0.00 | 0.00 | 0.00 | 40 | 1009.9 |
| 20260505001533 | 81 | 314 | 7.0 | 13.0 | 0.00 | 0.00 | 0.00 | 40 | 1009.9 |
| 20260505000030 | 81 | 307 | 6.1 | 13.0 | 0.00 | 0.00 | 0.00 | 39 | 1010.0 |
| 20260504234531 | 82 | 300 | 6.1 | 12.2 | 0.00 | 0.00 | 0.00 | 39 | 1010.0 |
| 20260504233031 | 82 | 316 | 6.1 | 12.2 | 0.00 | 0.00 | 0.00 | 38 | 1010.0 |
| 20260504230032 | 82 | 314 | 5.2 | 12.2 | 0.00 | 0.00 | 0.00 | 37 | 1010.3 |
| 20260504224531 | 82 | 306 | 6.1 | 12.2 | 0.00 | 0.00 | 0.00 | 37 | 1010.5 |
| 20260504223032 | 82 | 301 | 6.1 | 12.2 | 0.00 | 0.00 | 0.00 | 36 | 1010.6 |